Location: Possagno
(45.8500°N, 11.8667°E)
Time: 17:51:30
(UTC+00:00)

Cosmos 1610 Rocket - Pass Details

Date: 07 June 2020
Orbit: 954 x 1001 km, 82.9° (Epoch: 06 July)

Event Time Altitude Azimuth Distance (km) Brightness Sun altitude
Exits shadow 01:24:10 21° 196° (SSW) 2,028 5.6 -15.0°
Maximum altitude 01:28:31 76° 279° (W) 994 4.5 -14.6°
Drops below altitude 10° 01:34:45 10° 6° (N) 2,721 7.8 -14.1°
Sets 01:37:17 0° 8° (N) 3,679 8.7 -13.8°
